Location: Erdweis
(48.5167°N, 15.3500°E)
Time: 00:02:14
(UTC+00:00)

Lacrosse 4 Rocket - Visible Passes

Search period start: 24 January 2021 00:00
Search period end: 03 February 2021 00:00
Orbit: 537 x 620 km, 68.0° (Epoch: 23 January)

Date Brightness Start Highest point End Pass type
(mag) Time Alt. Az. Time Alt. Az. Time Alt. Az.
24 Jan 4.0 03:48:32 10° SSE 03:51:38 20° ESE 03:54:47 10° ENE visible
24 Jan 1.6 05:25:45 10° SW 05:29:55 54° NW 05:34:14 10° NNE visible
25 Jan 3.3 03:52:56 13° SSE 03:55:59 29° ESE 03:59:46 10° NE visible
25 Jan 2.0 05:30:34 10° WSW 05:34:34 38° NW 05:38:42 10° NNE visible
26 Jan 2.5 03:58:55 31° SSE 04:00:24 44° ESE 04:04:34 10° NE visible
26 Jan 2.4 05:35:32 10° WSW 05:39:16 28° NW 05:43:05 10° NNE visible
27 Jan 1.7 04:04:27 62° SSE 04:04:52 67° ESE 04:09:14 10° NE visible
27 Jan 2.8 05:40:48 11° W 05:44:00 21° NW 05:47:25 10° N visible
28 Jan 4.8 02:33:19 10° ENE 02:33:19 10° ENE 02:33:20 10° ENE visible
28 Jan 1.4 04:09:40 76° N 04:09:40 76° N 04:13:49 10° NNE visible
28 Jan 3.2 05:46:01 10° WNW 05:48:49 17° NW 05:51:41 10° N visible
29 Jan 4.6 02:38:22 12° ENE 02:38:22 12° ENE 02:38:49 10° ENE visible
29 Jan 1.9 04:14:42 49° NNW 04:14:42 49° NNW 04:18:20 10° NNE visible
29 Jan 3.4 05:51:33 10° WNW 05:53:40 13° NNW 05:55:49 10° N visible
30 Jan 4.5 02:43:16 13° NE 02:43:16 13° NE 02:43:49 10° NE visible
30 Jan 2.4 04:19:35 34° NNW 04:19:35 34° NNW 04:22:47 10° NNE visible
30 Jan 3.6 05:57:33 10° NW 05:58:34 11° NNW 05:59:35 10° NNW visible
31 Jan 4.4 02:48:02 13° NE 02:48:02 13° NE 02:48:38 10° NE visible
31 Jan 2.8 04:24:22 26° NNW 04:24:22 26° NNW 04:27:11 10° NNE visible
01 Feb 4.4 02:52:45 13° NE 02:52:45 13° NE 02:53:18 10° NE visible
01 Feb 3.1 04:29:03 20° NNW 04:29:03 20° NNW 04:31:32 10° NNE visible
02 Feb 4.3 02:57:23 13° NNE 02:57:23 13° NNE 02:57:53 10° NNE visible
02 Feb 3.4 04:33:41 16° NNW 04:33:41 16° NNW 04:35:48 10° N visible
